TimeMST,TemperatureF,Dew PointF,Humidity,Sea Level PressureIn,VisibilityMPH,Wind Direction,Wind SpeedMPH,Gust SpeedMPH,PrecipitationIn,Events,Conditions,WindDirDegrees,DateUTC
12:53 AM,17.1,10.9,77,30.40,10.0,Calm,Calm,-,N/A,,Clear,0,2013-01-24 07:53:00
1:53 AM,18.0,12.0,78,30.38,10.0,Calm,Calm,-,N/A,,Clear,0,2013-01-24 08:53:00
2:53 AM,14.0,9.0,80,30.40,10.0,Calm,Calm,-,N/A,,Clear,0,2013-01-24 09:53:00
3:53 AM,16.0,10.0,77,30.39,10.0,Calm,Calm,-,N/A,,Clear,0,2013-01-24 10:53:00
4:53 AM,15.1,10.0,80,30.42,10.0,NE,6.9,-,N/A,,Scattered Clouds,50,2013-01-24 11:53:00
5:53 AM,19.0,12.9,77,30.40,10.0,North,3.5,-,N/A,,Mostly Cloudy,10,2013-01-24 12:53:00
6:53 AM,21.0,15.1,78,30.40,10.0,Calm,Calm,-,N/A,,Mostly Cloudy,0,2013-01-24 13:53:00
7:53 AM,21.0,14.0,74,30.42,10.0,NNE,4.6,-,N/A,,Partly Cloudy,20,2013-01-24 14:53:00
8:53 AM,25.0,16.0,69,30.39,10.0,Calm,Calm,-,N/A,,Mostly Cloudy,0,2013-01-24 15:53:00
9:53 AM,32.0,18.0,56,30.38,10.0,Calm,Calm,-,N/A,,Overcast,0,2013-01-24 16:53:00
10:53 AM,39.0,19.9,46,30.35,10.0,Calm,Calm,-,N/A,,Overcast,0,2013-01-24 17:53:00
11:53 AM,41.0,19.9,43,30.33,10.0,West,4.6,-,N/A,,Overcast,260,2013-01-24 18:53:00
12:53 PM,39.0,28.0,65,30.34,10.0,SSW,9.2,-,N/A,,Overcast,210,2013-01-24 19:53:00
1:53 PM,37.9,30.0,73,30.32,10.0,SSW,3.5,-,0.00,,Overcast,200,2013-01-24 20:53:00
2:53 PM,36.0,30.9,82,30.35,10.0,NE,4.6,-,N/A,,Overcast,40,2013-01-24 21:53:00
3:07 PM,35.6,30.2,81,30.25,10.0,NE,3.5,-,N/A,,Overcast,50,2013-01-24 22:07:00
3:15 PM,35.6,32.0,87,30.25,10.0,NE,3.5,-,N/A,,Overcast,40,2013-01-24 22:15:00
3:53 PM,37.0,30.9,79,30.32,10.0,Calm,Calm,-,N/A,,Overcast,0,2013-01-24 22:53:00
4:53 PM,37.9,30.9,76,30.33,10.0,Variable,5.8,-,N/A,,Overcast,0,2013-01-24 23:53:00
5:36 PM,37.4,32.0,81,30.26,10.0,SW,5.8,19.6,0.00,Rain,Light Rain,230,2013-01-25 00:36:00
5:53 PM,37.9,32.0,79,30.33,10.0,Calm,Calm,-,0.01,Rain,Light Rain,0,2013-01-25 00:53:00
6:53 PM,34.0,32.0,92,30.35,10.0,ENE,4.6,-,0.00,,Overcast,60,2013-01-25 01:53:00
7:53 PM,34.0,32.0,92,30.36,10.0,Calm,Calm,-,N/A,,Overcast,0,2013-01-25 02:53:00
8:43 PM,33.8,30.2,87,30.30,10.0,NE,6.9,-,N/A,,Overcast,50,2013-01-25 03:43:00
8:53 PM,34.0,30.9,89,30.35,10.0,NE,5.8,-,N/A,,Overcast,40,2013-01-25 03:53:00
9:53 PM,34.0,32.0,92,30.31,10.0,Calm,Calm,-,N/A,,Overcast,0,2013-01-25 04:53:00
10:14 PM,33.8,32.0,93,30.28,10.0,Calm,Calm,-,N/A,,Overcast,0,2013-01-25 05:14:00
10:53 PM,35.1,32.0,89,30.29,10.0,Calm,Calm,-,N/A,,Overcast,0,2013-01-25 05:53:00
11:33 PM,33.8,30.2,87,30.30,10.0,Calm,Calm,-,N/A,,Overcast,0,2013-01-25 06:33:00
11:53 PM,33.1,30.9,92,30.29,10.0,Calm,Calm,-,N/A,,Overcast,0,2013-01-25 06:53:00